This is the latest recevied weather packets stored in our database for station/object KB4MOX. If no packets are shown the sender has not sent any weather packets the latest 10 day(s).
| Time | Temp. | Humidity | Pressure | Rain* | Wind** | Luminosity | Snow |
|---|---|---|---|---|---|---|---|
| 1787583561 | 29.44° C | 45% | 1016.8 hPa | 0 mm | - | 90 W/m² | - |
| 1787583260 | 28.89° C | 50% | 1017 hPa | 0 mm | - | 73 W/m² | - |
| 1787582955 | 28.89° C | 51% | 1017 hPa | 0 mm | - | 71 W/m² | - |
| 1787582650 | 28.33° C | 52% | 1017 hPa | 0 mm | - | 100 W/m² | - |
| 1787582347 | 27.78° C | 54% | 1017.1 hPa | 0 mm | - | 81 W/m² | - |
| 1787582046 | 27.78° C | 56% | 1016.8 hPa | 0 mm | - | 215 W/m² | - |
| 1787581741 | 27.22° C | 57% | 1017 hPa | 0 mm | - | 103 W/m² | - |
| 1787581436 | 26.67° C | 59% | 1016.9 hPa | 0 mm | - | 98 W/m² | - |
| 1787581136 | 26.67° C | 59% | 1017.1 hPa | 0 mm | - | 78 W/m² | - |
| 1787580831 | 26.11° C | 59% | 1017 hPa | 0 mm | - | 76 W/m² | - |
| 1787580528 | 26.11° C | 60% | 1016.9 hPa | 0 mm | - | 70 W/m² | - |
| 1787580227 | 25.56° C | 60% | 1017 hPa | 0 mm | - | 77 W/m² | - |
| 1787579922 | 26.11° C | 60% | 1017.2 hPa | 0 mm | - | 99 W/m² | - |
| 1787579617 | 26.11° C | 59% | 1017.1 hPa | 0 mm | - | 118 W/m² | - |
| 1787579312 | 26.11° C | 60% | 1017.1 hPa | 0 mm | - | 140 W/m² | - |
| 1787579008 | 25.56° C | 62% | 1017 hPa | 0 mm | - | 108 W/m² | - |
| 1787578703 | 25.56° C | 62% | 1017 hPa | 0 mm | - | 122 W/m² | - |
| 1787578398 | 25° C | 63% | 1016.9 hPa | 0 mm | - | 98 W/m² | - |
| 1787578098 | 25° C | 63% | 1017 hPa | 0 mm | - | 64 W/m² | - |
| 1787577793 | 25° C | 63% | 1016.9 hPa | 0 mm | - | 54 W/m² | - |
| 1787577488 | 25° C | 64% | 1017 hPa | 0 mm | - | 53 W/m² | - |
| 1787577185 | 25° C | 65% | 1016.9 hPa | 0 mm | - | 50 W/m² | - |
| 1787576881 | 24.44° C | 66% | 1017.2 hPa | 0 mm | - | 57 W/m² | - |
| 1787576576 | 24.44° C | 65% | 1016.9 hPa | 0 mm | - | 52 W/m² | - |
| 1787576272 | 24.44° C | 65% | 1016.8 hPa | 0 mm | - | 47 W/m² | - |
* Rain latest hour (hover to see other rain measurements)
** Current wind speed in m/s (hover to see current wind gust speed)